(41632) = 1995 SO30 = 2000 SE323 = 2000 SL204 = 2001 XB181

Discovered at Socorro on 2000-09-24 by LINEAR.

Orbit

Orbit type: Main Belt

Note: WebGL enabled browser required.

epoch2023-09-13.0
epoch JD2460200.5
perihelion date2022-08-16.81978
perihelion JD2459808.31978
argument of perihelion (°)309.40210
ascending node (°)194.81960
inclination (°)1.59570
eccentricity0.0360103
perihelion distance (AU)2.8306894
Tisserand w.r.t. Jupiter3.3
ΔV w.r.t. Earth (km/sec)10.5
semimajor axis (AU)2.9364312
mean anomaly (°)76.81743
mean daily motion (°/day)0.19587280
aphelion distance (AU)3.042
period (years)5.03
P-vector [x]-0.81120870
P-vector [y]0.54469957
P-vector [z]0.21270359
Q-vector [x]-0.58471336
Q-vector [y]-0.75115247
Q-vector [z]-0.30639885
absolute magnitude15.27
phase slope0.15
uncertainty0
referenceMPO 776587
observations used893
oppositions22
arc length (days)11927
first opposition used1990
last opposition used2023
residual rms (arc-secs)0.77
perturbers coarse indicatorM-v
perturbers precise indicator003Ek
first observation date used1990-10-14.0
last observation date used2023-06-10.0
computer nameMPCLINUX
JD of orbit computation2456465.501373
perihelion JD uncertainty (days)4.3359E-04
argument of perihelion uncertainty (°)1.5494E-04
ascending node uncertainty (°)1.2877E-04
inclination uncertainty (°)5.5202E-06
eccentricity uncertainty 3.8730E-08
perihelion distance uncertainty (AU)1.1179E-07
Minimum Orbit Intersection Distances (in AU)
for orbit epoch: 2460200.5, reference: E2023-UA0
Mercury2.45178
Venus2.11492
Earth1.84141
Mars1.1712
Jupiter1.94001
Saturn6.16933
Uranus15.609
Neptune26.8493

Observations

915 total observations over interval: 1990 10 14.38433 – 2023 06 10.218173
These data are available for download (format description).

Date (UT) J2000 RA J2000 Dec Magn Location Ref
1990 10 14.38433 01 28 58.65 +08 59 35.8 20.1 V 691 – Steward Observatory, Kitt Peak-Spacewatch MPS 79341
1990 10 14.40533 01 28 57.61 +08 59 29.8 20.1 V 691 – Steward Observatory, Kitt Peak-Spacewatch MPS 79341
1990 10 14.42637 01 28 56.64 +08 59 22.5 20.2 V 691 – Steward Observatory, Kitt Peak-Spacewatch MPS 79341
1990 10 22.33532 01 22 43.43 +08 18 41.7 20.1 V 691 – Steward Observatory, Kitt Peak-Spacewatch MPS 79341
1990 10 22.35687 01 22 42.40 +08 18 35.2 20.1 V 691 – Steward Observatory, Kitt Peak-Spacewatch MPS 79341
1990 10 22.37783 01 22 41.38 +08 18 28.7 20.0 V 691 – Steward Observatory, Kitt Peak-Spacewatch MPS 79341
1990 10 26.23912 01 19 44.69 +07 59 04.5 20.5 V 691 – Steward Observatory, Kitt Peak-Spacewatch MPS 79341
1990 10 26.25641 01 19 43.90 +07 58 59.7 20.5 V 691 – Steward Observatory, Kitt Peak-Spacewatch MPS 79341
1990 10 26.27306 01 19 43.12 +07 58 54.4 20.5 V 691 – Steward Observatory, Kitt Peak-Spacewatch MPS 79341
1992 01 10.21321 07 47 29.45 +18 42 57.9   691 – Steward Observatory, Kitt Peak-Spacewatch MPS 46558
1992 01 10.23589 07 47 28.18 +18 43 00.9   691 – Steward Observatory, Kitt Peak-Spacewatch MPS 46558
1992 01 10.25838 07 47 26.97 +18 43 04.5 19.9 V 691 – Steward Observatory, Kitt Peak-Spacewatch MPS 46558
1995 09 19.43421 01 33 26.35 +09 44 21.1   691 – Steward Observatory, Kitt Peak-Spacewatch MPC 25845
1995 09 19.46327 01 33 25.33 +09 44 15.1   691 – Steward Observatory, Kitt Peak-Spacewatch MPC 25845
1995 09 19.49210 01 33 24.36 +09 44 08.3 19.3 V 691 – Steward Observatory, Kitt Peak-Spacewatch MPC 25845
1995 09 24.45662 01 30 29.04 +09 24 40.3   691 – Steward Observatory, Kitt Peak-Spacewatch MPC 25845
1995 09 24.47776 01 30 28.23 +09 24 35.1 19.9 V 691 – Steward Observatory, Kitt Peak-Spacewatch MPC 25845
1995 09 24.49888 01 30 27.39 +09 24 29.7   691 – Steward Observatory, Kitt Peak-Spacewatch MPC 25845
1998 04 22.24406 13 40 52.37 -09 52 18.6 19.0   704 – Lincoln Laboratory ETS, New Mexico MPS 54717
1998 04 22.26297 13 40 51.42 -09 52 10.0 19.2   704 – Lincoln Laboratory ETS, New Mexico MPS 54717
1998 04 22.28172 13 40 50.55 -09 52 04.8 19.1   704 – Lincoln Laboratory ETS, New Mexico MPS 54717
1998 04 22.30058 13 40 49.67 -09 52 00.0 19.1   704 – Lincoln Laboratory ETS, New Mexico MPS 54717
1999 06 08.33546 20 11 51.11 -17 46 32.0 19.8 V 691 – Steward Observatory, Kitt Peak-Spacewatch MPS 81172
1999 06 08.35717 20 11 50.72 -17 46 33.1 20.2 V 691 – Steward Observatory, Kitt Peak-Spacewatch MPS 81172
1999 06 08.37872 20 11 50.30 -17 46 33.9 20.2 V 691 – Steward Observatory, Kitt Peak-Spacewatch MPS 81172
1999 06 11.40401 20 10 50.94 -17 48 01.3 20.5 V 691 – Steward Observatory, Kitt Peak-Spacewatch MPS 81172
1999 06 11.41713 20 10 50.62 -17 48 01.8 20.6 V 691 – Steward Observatory, Kitt Peak-Spacewatch MPS 81172
1999 06 11.43052 20 10 50.31 -17 48 02.4 20.4 V 691 – Steward Observatory, Kitt Peak-Spacewatch MPS 81172
2000 09 24.40183 01 18 38.57 +08 19 37.4 19.2   704 – Lincoln Laboratory ETS, New Mexico MPS 20130
2000 09 24.41631 01 18 37.94 +08 19 34.1 19.5   704 – Lincoln Laboratory ETS, New Mexico MPS 20130
2000 09 24.43073 01 18 37.34 +08 19 29.6 19.5   704 – Lincoln Laboratory ETS, New Mexico MPS 20130
2000 09 24.45958 01 18 36.14 +08 19 22.9 19.8   704 – Lincoln Laboratory ETS, New Mexico MPS 20130
2000 09 28.34350 01 15 54.55 +08 01 14.1 19.8 V 691 – Steward Observatory, Kitt Peak-Spacewatch MPS 21421
2000 09 28.36463 01 15 53.61 +08 01 08.0 20.0 V 691 – Steward Observatory, Kitt Peak-Spacewatch MPS 21421
2000 09 28.38564 01 15 52.67 +08 01 01.9 20.1 V 691 – Steward Observatory, Kitt Peak-Spacewatch MPS 21421
2000 10 01.25318 01 13 47.24 +07 46 55.3 19.4   704 – Lincoln Laboratory ETS, New Mexico MPS 20130
2000 10 01.26829 01 13 46.54 +07 46 51.1 20.2   704 – Lincoln Laboratory ETS, New Mexico MPS 20130
2000 10 01.28340 01 13 45.86 +07 46 46.8 19.7   704 – Lincoln Laboratory ETS, New Mexico MPS 20130
2000 10 01.32479 01 13 43.87 +07 46 33.7 20.0   704 – Lincoln Laboratory ETS, New Mexico MPS 20130
2000 10 02.38763 01 12 56.17 +07 41 12.9 19.5   704 – Lincoln Laboratory ETS, New Mexico MPS 20130
2000 10 02.40311 01 12 55.56 +07 41 09.2 19.7   704 – Lincoln Laboratory ETS, New Mexico MPS 20130
2000 10 02.41803 01 12 54.80 +07 41 04.0 19.2   704 – Lincoln Laboratory ETS, New Mexico MPS 20130
2000 10 02.43305 01 12 54.07 +07 40 59.9 19.6   704 – Lincoln Laboratory ETS, New Mexico MPS 20130
2000 11 02.22347 00 50 33.89 +05 07 46.0 19.7   704 – Lincoln Laboratory ETS, New Mexico MPS 46558
2000 11 02.23734 00 50 33.48 +05 07 41.2 19.9   704 – Lincoln Laboratory ETS, New Mexico MPS 46558
2000 11 02.25091 00 50 32.96 +05 07 36.7 19.9   704 – Lincoln Laboratory ETS, New Mexico MPS 46558
2001 12 09.35877 07 44 35.76 +18 58 51.5 19.5 R 699 – Lowell Observatory-LONEOS MPS 46957
2001 12 09.38403 07 44 34.99 +18 58 52.0   699 – Lowell Observatory-LONEOS MPS 46957
2001 12 09.40938 07 44 34.30 +18 58 52.9   699 – Lowell Observatory-LONEOS MPS 46957
2001 12 09.43474 07 44 33.51 +18 58 54.7   699 – Lowell Observatory-LONEOS MPS 46957
2001 12 14.37970 07 41 58.58 +19 02 33.0 19.2   704 – Lincoln Laboratory ETS, New Mexico MPS 45347
2001 12 14.39490 07 41 58.13 +19 02 33.9 19.7   704 – Lincoln Laboratory ETS, New Mexico MPS 45347
2001 12 14.41010 07 41 57.38 +19 02 34.6 20.1   704 – Lincoln Laboratory ETS, New Mexico MPS 45347
2001 12 14.42531 07 41 56.88 +19 02 35.2 19.6   704 – Lincoln Laboratory ETS, New Mexico MPS 45347
2001 12 14.44052 07 41 56.38 +19 02 35.0 19.5   704 – Lincoln Laboratory ETS, New Mexico MPS 45347
2001 12 15.07997 07 41 33.78 +19 03 08.2 19.3 V 049 – Uppsala-Kvistaberg MPS 46957
2001 12 15.09328 07 41 33.29 +19 03 09.4 19.1 V 049 – Uppsala-Kvistaberg MPS 46957
2001 12 15.11758 07 41 32.41 +19 03 11.0 19.6 V 049 – Uppsala-Kvistaberg MPS 46957
2001 12 17.37920 07 40 07.93 +19 05 30.9 18.8   704 – Lincoln Laboratory ETS, New Mexico MPS 45347
2001 12 17.39440 07 40 07.29 +19 05 32.1 19.7   704 – Lincoln Laboratory ETS, New Mexico MPS 45347
2001 12 17.40962 07 40 06.71 +19 05 33.3 18.9   704 – Lincoln Laboratory ETS, New Mexico MPS 45347
2001 12 17.42484 07 40 06.11 +19 05 34.5 18.9   704 – Lincoln Laboratory ETS, New Mexico MPS 45347
2001 12 20.30886 07 38 08.72 +19 08 55.9 19.0   704 – Lincoln Laboratory ETS, New Mexico MPS 46957
2001 12 20.32407 07 38 07.98 +19 08 57.2 19.8   704 – Lincoln Laboratory ETS, New Mexico MPS 46957
2001 12 20.36976 07 38 06.02 +19 09 01.4 19.3   704 – Lincoln Laboratory ETS, New Mexico MPS 46957
2002 01 05.31130 07 24 53.06 +19 34 07.2 20.2   608 – Haleakala-AMOS MPS 54717
2002 01 05.32161 07 24 52.52 +19 34 07.9 20.0   608 – Haleakala-AMOS MPS 54717
2002 01 05.33228 07 24 51.92 +19 34 08.9 19.7   608 – Haleakala-AMOS MPS 54717
2002 01 09.32815 07 21 11.31 +19 41 24.7 19.7   704 – Lincoln Laboratory ETS, New Mexico MPS 54717
2002 01 09.34330 07 21 10.45 +19 41 26.4 20.0   704 – Lincoln Laboratory ETS, New Mexico MPS 54717
2002 01 09.35004 07 21 10.20 +19 41 28.6 19.8   608 – Haleakala-AMOS MPS 54717
2002 01 09.35846 07 21 09.74 +19 41 27.3 19.8   704 – Lincoln Laboratory ETS, New Mexico MPS 54717
2002 01 09.36038 07 21 09.62 +19 41 30.3 19.8   608 – Haleakala-AMOS MPS 54717
2002 01 09.37119 07 21 09.00 +19 41 31.3 20.1   608 – Haleakala-AMOS MPS 54717
2002 01 09.37364 07 21 08.60 +19 41 30.2 20.2   704 – Lincoln Laboratory ETS, New Mexico MPS 54717
2002 01 09.38893 07 21 07.73 +19 41 33.5 20.4   704 – Lincoln Laboratory ETS, New Mexico MPS 54717
2002 01 12.14738 07 18 35.36 +19 46 37.3 19.0   704 – Lincoln Laboratory ETS, New Mexico MPS 54717
2002 01 12.14959 07 18 35.18 +19 46 38.0 19.0   704 – Lincoln Laboratory ETS, New Mexico MPS 54717
2002 01 12.16290 07 18 34.43 +19 46 38.9 19.1   704 – Lincoln Laboratory ETS, New Mexico MPS 54717
2002 01 12.16628 07 18 34.20 +19 46 39.8 18.9   704 – Lincoln Laboratory ETS, New Mexico MPS 54717
2002 01 12.17840 07 18 33.54 +19 46 41.1 19.4   704 – Lincoln Laboratory ETS, New Mexico MPS 54717
2002 01 12.18215 07 18 33.34 +19 46 41.9 19.2   704 – Lincoln Laboratory ETS, New Mexico MPS 54717
2002 01 12.19394 07 18 32.69 +19 46 42.9 19.3   704 – Lincoln Laboratory ETS, New Mexico MPS 54717
